Terminal Aerodrome Forecast
Issued by NWS

Home | Current Version | Previous Version | Text Only | Print | Product List | Glossary On
Versions: 1 2 3 4 5 6 7 8 9 10 11 12 13 14
000
FTUS45 KPSR 180500
TAFBLH
TAF
KBLH 180521Z 1806/1906 20008KT P6SM FEW150 BKN250
     FM181100 18006KT P6SM FEW150 BKN200
     FM181600 24008KT P6SM VCSH FEW100 OVC120
     FM190200 24006KT P6SM FEW080 BKN180=

USA.gov is the U.S. government's official web portal to all federal, state and local government web resources and services.